Location: Aalen
(48.8330°N, 10.1000°E)
Time: 16:30:07
(UTC+02:00)

UWE-3 - Pass Details

Date: 10 April 2023
Orbit: 576 x 669 km, 97.7° (Epoch: 02 June)

Event Time Altitude Azimuth Distance (km) Brightness Sun altitude
Rises 04:43:42 0° 10° (N) 2,935 ? -18.1°
Reaches altitude 10° 04:45:57 10° 7° (N) 2,007 ? -17.8°
Maximum altitude 04:50:14 60° 288° (WNW) 704 ? -17.2°
Enters shadow 04:51:57 33° 222° (SW) 1,023 ? -17.0°
